sat.trackr.live / text

‹ back to catalog

STARLINK-35650

NORAD 66573 · 2025-268S

PAYLOAD ACTIVE UNKNOWN

§ Identity

Operator
Country
US
Launch date
2025-11-21
Launch site
AFETR
Launch vehicle
Mass (kg)
RCS (m²)

Purposes: comms

External: N2YO · Heavens-Above · Gunter

§ Orbital elements

Epoch: 2026-05-24T18:41:24.518400Z

Period
94.27 min
Inclination
42.9994°
Eccentricity
0.0001832
Mean motion
15.27595050 rev/d
Perigee alt
481.7 km
Apogee alt
484.3 km
Semi-major
6,861.1 km
B*
6.0894e-4
RAAN
277.6135°
Arg perigee
283.7401°
Mean anomaly
76.3247°
Rev number
2,959

§ Raw data

STARLINK-356501 66573U 25268S   26144.77875600  .00016540  00000+0  60894-3 0  99922 66573  42.9994 277.6135 0001832 283.7401  76.3247 15.27595050 29599

JSON: /api/v1/satellites/66573 · /tle

For live sub-satellite position, see the globe view (requires WebGL).

§ Visibility from observer

Set your observer location to see the next 7 days of passes ≥ 10°. The values pass through the URL so the page stays shareable.

No JS? Fill the form by hand. The geolocation button needs JavaScript.